Wetbulb
56.70 56.63 56.56 56.78 57.12 57.59 57.84 58.24 58.52 58.86 59.43 59.87 60.20 60.39 60.22 60.34 59.63 60.98 58.78 58.94 61.22 63.54 62.17 60.35 59.44 58.27 59.03 56.88 56.37 56.14 50.33 48.92 50.25 50.82 52.42 55.42 54.18 57.03 58.18 57.72 59.51 60.20 60.69 63.35 69.22
56.33 56.33 56.35 56.32 56.46 56.79 57.30 57.61 58.06 58.63 59.03 59.56 60.00 60.10 60.15 59.98 62.43 59.34 60.87 64.13 65.48 65.20 60.91 58.00 56.32 56.40 55.10 55.00 54.24 52.01 49.33 50.41 53.62 53.53 53.14 54.51 54.34 55.14 55.28 55.96 56.87 58.21 59.61 60.90 66.38
55.88 56.22 56.32 55.93 56.09 56.38 56.59 57.15 57.59 58.17 58.86 59.20 59.49 59.71 59.77 61.01 60.52 57.42 64.81 64.91 64.45 63.63 61.74 59.78 58.65 55.67 54.08 54.90 53.71 52.26 49.94 52.70 52.62 54.28 54.96 53.71 53.77 55.11 54.01 54.23 56.61 57.22 59.47 60.45 61.06
55.41 55.59 55.46 55.56 55.58 55.82 55.77 56.35 57.04 57.86 58.11 58.25 58.82 59.53 59.75 63.60 52.18 59.82 66.78 66.14 65.80 63.97 60.27 58.36 56.89 54.39 53.63 51.73 54.27 51.05 52.49 52.94 52.77 53.46 53.49 52.91 54.75 53.81 54.48 55.29 57.48 57.61 58.49 59.13 59.49
55.59 55.25 55.39 55.72 55.79 55.98 56.15 55.77 56.32 56.95 57.33 57.57 58.61 59.65 61.84 59.30 57.26 62.17 67.24 65.47 63.36 62.12 58.24 56.84 55.60 54.85 52.40 53.27 53.46 51.60 53.15 53.30 54.25 54.20 54.13 54.62 53.12 53.59 54.04 56.48 57.38 57.80 57.47 58.13 59.21
55.18 55.23 55.29 55.33 55.51 55.62 55.76 55.83 55.92 56.21 56.60 57.49 58.77 59.09 61.13 54.87 61.72 62.21 61.95 61.94 61.89 60.09 58.26 57.90 56.11 56.55 54.62 53.23 52.60 54.23 53.50 53.63 54.45 54.67 54.89 53.23 53.74 54.13 55.02 56.96 56.28 57.15 57.18 57.96 58.56
54.58 54.50 54.50 54.75 55.02 55.53 55.43 55.60 55.61 55.90 56.66 58.03 59.18 61.54 58.05 56.79 61.04 62.61 62.21 60.76 60.67 59.47 57.70 58.21 58.11 55.27 55.82 53.43 55.52 54.66 51.70 52.96 53.61 53.84 53.33 54.56 51.42 52.05 55.55 56.55 56.21 56.56 57.34 58.06 59.21
54.13 53.86 53.90 54.26 54.64 54.95 55.49 55.27 55.59 56.06 57.27 58.59 59.62 61.35 56.53 61.33 62.50 60.97 61.60 59.90 60.55 60.49 59.49 59.75 59.26 57.32 55.47 56.37 54.25 51.84 52.07 48.48 53.07 53.13 53.27 52.94 48.43 53.69 55.92 56.05 55.45 56.18 57.09 57.88 59.06
53.66 53.36 53.50 53.82 54.25 54.73 54.72 54.71 56.12 57.60 58.73 59.17 60.64 60.58 56.14 60.48 58.22 60.69 61.70 58.20 59.06 59.39 59.78 59.07 58.54 56.20 55.42 51.50 49.90 51.22 46.93 48.31 50.43 53.87 52.90 52.07 49.78 53.11 56.20 55.60 55.00 55.57 55.91 56.34 57.72
53.22 52.73 52.94 53.36 53.87 54.06 53.69 54.79 58.07 58.36 60.85 62.21 61.66 57.27 58.58 56.33 58.57 59.93 61.26 60.08 57.21 57.30 56.46 55.93 55.52 52.94 52.78 51.28 45.76 47.74 48.14 48.52 49.05 52.26 51.87 50.34 50.33 52.95 54.51 54.30 54.24 55.11 55.96 56.26 56.28
53.11 52.61 52.64 52.92 53.39 53.46 55.64 62.17 59.44 58.95 61.08 56.94 57.23 56.11 56.41 59.29 60.76 58.30 59.52 58.05 57.28 55.65 52.30 55.28 51.28 49.40 51.17 52.61 51.90 50.53 49.52 48.51 50.51 52.33 50.73 50.31 50.63 51.97 54.13 54.32 54.27 54.87 55.90 56.30 56.61
52.67 52.50 52.65 52.50 52.93 53.57 57.52 59.34 58.12 58.89 53.42 57.73 57.66 57.10 58.06 58.93 55.39 56.89 59.57 54.54 54.05 50.86 53.38 50.84 48.59 51.52 51.64 51.54 50.39 49.77 48.02 47.92 50.35 51.77 51.11 50.31 50.02 52.62 53.77 54.21 54.91 54.89 56.06 56.34 57.63
51.72 51.64 52.14 52.16 52.72 56.99 58.54 59.58 62.03 61.15 54.66 55.76 56.84 56.89 57.44 57.38 54.65 55.32 57.31 55.15 52.85 51.03 51.44 49.51 51.17 52.05 50.43 49.57 48.53 49.12 47.98 48.26 48.28 50.79 51.84 50.47 48.85 50.84 53.51 54.45 55.07 55.76 56.78 57.98 58.49
51.22 51.17 51.41 51.44 55.03 59.68 57.96 61.38 61.90 61.96 51.47 53.14 54.14 55.20 56.81 57.32 53.13 58.01 58.36 55.59 53.28 50.56 51.87 51.11 53.28 50.28 49.34 48.56 49.73 47.07 50.99 49.79 48.88 47.95 44.55 51.23 43.52 50.05 51.98 52.55 53.40 54.62 55.74 56.82 58.37
50.86 50.98 50.99 49.68 58.82 58.15 59.86 61.47 62.25 61.16 42.94 54.41 54.04 59.36 56.67 54.21 54.87 54.25 58.34 55.98 51.84 52.07 51.30 49.71 50.53 49.64 48.97 49.92 51.34 48.83 51.49 50.01 49.70 47.99 47.96 47.91 45.74 48.55 52.28 51.06 52.94 54.81 55.55 56.62 58.49
50.56 50.73 50.97 57.76 61.74 60.43 61.04 61.77 61.11 50.58 41.88 51.53 54.23 52.84 52.30 53.40 53.56 54.97 54.41 56.89 56.06 52.43 52.86 51.84 54.68 52.69 51.55 52.20 52.09 52.58 50.36 50.15 50.05 48.38 42.65 46.90 46.22 46.71 49.57 51.55 52.73 53.96 55.34 57.13 57.89
50.03 50.29 51.40 57.96 56.72 61.24 61.78 59.08 49.70 43.80 50.94 48.80 49.78 51.54 51.53 51.33 52.14 53.20 51.84 51.29 49.43 47.16 47.59 50.85 51.09 53.20 53.58 50.11 52.24 51.44 48.62 42.76 41.84 42.40 41.79 49.49 47.02 48.55 52.04 51.99 52.65 53.80 55.76 56.70 57.67
48.68 49.00 56.14 58.97 59.97 62.28 60.75 54.19 43.80 47.02 47.34 51.96 50.06 50.38 48.92 51.02 50.74 51.54 50.93 49.35 52.40 51.23 48.40 45.79 44.32 50.74 53.04 51.51 49.35 49.67 49.33 43.55 37.10 39.15 42.78 47.62 44.18 48.11 53.50 54.07 54.74 55.25 56.28 56.99 57.30
47.76 56.73 57.92 57.00 59.31 62.41 56.21 47.58 46.88 48.57 49.45 48.58 49.93 47.24 47.44 49.13 48.56 49.24 49.30 48.61 50.54 51.50 46.48 45.63 45.78 52.08 52.58 52.89 52.02 48.93 46.47 50.32 44.82 46.41 42.43 45.42 48.49 51.87 53.82 53.10 53.39 53.70 55.01 55.77 57.57
52.95 53.84 56.32 56.40 59.52 60.46 52.83 45.95 48.34 50.02 48.96 48.97 45.08 47.89 45.45 47.62 47.67 47.93 48.08 50.50 49.63 51.77 53.13 49.12 43.77 49.75 51.07 52.72 52.74 50.30 51.41 44.60 45.33 37.21 36.30 42.81 44.55 45.46 49.77 51.62 52.94 52.96 53.66 55.32 57.78
53.14 50.81 54.32 56.62 59.09 53.83 47.92 50.12 50.18 50.72 49.11 47.30 47.23 46.96 47.47 46.51 47.41 46.68 46.72 49.47 50.37 49.83 51.82 50.18 47.36 46.09 49.61 48.13 47.35 48.03 46.72 47.38 47.22 44.74 39.44 37.72 42.79 51.66 50.17 52.00 52.13 53.16 54.27 54.72 56.39
52.88 47.14 53.46 55.50 51.11 53.52 49.16 48.23 43.83 48.69 49.03 48.61 49.13 48.34 46.80 47.12 45.87 45.69 45.26 47.90 50.82 49.40 46.36 50.00 46.91 42.37 45.07 50.12 51.12 50.06 48.44 47.32 41.95 40.39 43.96 42.94 43.37 53.07 52.11 52.61 54.14 53.59 54.54 55.20 56.84
45.93 47.40 53.65 52.91 46.10 46.23 45.74 44.48 44.33 44.00 45.39 45.18 44.79 46.39 47.09 44.67 41.06 43.87 45.01 48.73 49.42 47.51 46.00 47.96 43.48 38.50 40.60 45.65 48.48 46.93 47.78 45.89 46.00 44.54 39.60 39.18 42.26 53.08 53.48 54.08 54.20 53.41 54.47 55.28 56.57
45.47 42.91 47.45 49.55 48.18 44.52 42.59 42.76 41.24 44.56 43.87 44.27 43.44 44.76 44.02 42.88 44.61 41.79 42.56 45.02 46.59 46.31 47.10 45.62 42.59 39.81 36.20 39.72 43.68 41.07 43.20 44.44 43.30 37.50 40.07 41.22 43.18 48.32 51.04 50.63 52.12 53.09 54.59 54.65 55.69
46.12 45.15 44.73 43.50 45.03 43.58 43.98 42.57 40.65 40.37 44.07 44.40 41.88 41.64 41.61 38.67 40.76 40.24 42.70 43.11 44.18 45.99 45.00 44.09 37.72 40.37 41.72 42.32 42.00 41.46 41.70 42.65 40.80 41.57 36.81 39.96 40.90 46.35 48.64 50.33 52.36 54.28 53.79 53.55 53.94
44.48 43.51 46.15 44.29 43.57 43.39 40.15 42.45 40.39 41.31 40.77 40.20 39.71 42.20 42.83 39.84 40.20 38.20 40.80 41.44 40.71 43.67 42.80 44.49 37.94 39.85 36.96 40.60 40.98 38.37 40.11 40.92 41.22 41.82 41.95 43.13 42.97 49.18 50.25 50.65 48.97 50.78 50.06 50.54 53.18
48.37 49.48 45.45 44.32 42.76 42.19 43.51 41.64 40.46 41.48 42.76 43.00 42.24 41.47 40.42 41.84 43.66 44.42 44.35 43.81 43.19 41.12 40.65 40.59 38.64 36.75 32.88 38.42 38.09 34.17 38.92 40.21 41.11 43.04 43.00 39.88 44.65 48.55 47.58 48.54 49.33 51.45 51.11 53.01 52.67
MSLP
1018.17 1017.77 1017.39 1016.99 1016.60 1016.19 1015.82 1015.52 1015.20 1014.91 1014.63 1014.30 1013.96 1013.67 1013.32 1012.86 1012.21 1011.88 1009.79 1009.93 1009.93 1010.11 1010.12 1008.23 1007.84 1007.28 1006.68 1005.49 1005.51 1004.91 1003.06 1000.63 1000.04 999.76 1000.31 1001.67 1001.77 1002.22 1002.57 1002.17 1002.38 1002.55 1002.48 1003.78 1004.45
1018.33 1017.88 1017.44 1017.01 1016.57 1016.17 1015.77 1015.42 1015.11 1014.80 1014.48 1014.09 1013.72 1013.40 1013.10 1012.79 1011.21 1008.95 1009.87 1009.88 1010.01 1010.07 1009.28 1007.55 1006.59 1006.56 1005.73 1004.93 1004.79 1004.17 1002.55 1000.50 999.99 1000.49 1000.53 1001.65 1001.93 1002.00 1002.69 1002.40 1002.69 1003.25 1003.85 1004.41 1004.25
1018.45 1017.91 1017.39 1016.92 1016.46 1016.04 1015.67 1015.28 1014.95 1014.62 1014.35 1013.99 1013.55 1013.16 1012.83 1012.41 1010.19 1007.99 1009.66 1009.95 1010.01 1009.82 1008.07 1007.11 1006.20 1005.94 1004.76 1004.41 1004.08 1003.73 1002.42 1001.18 1001.78 1002.25 1002.19 1002.17 1002.67 1002.86 1002.70 1001.92 1002.21 1002.73 1003.32 1003.89 1004.30
1018.53 1017.97 1017.38 1016.80 1016.31 1015.88 1015.49 1015.10 1014.76 1014.44 1014.16 1013.88 1013.48 1013.02 1012.48 1011.23 1008.22 1008.14 1009.50 1009.81 1009.82 1009.33 1007.63 1006.71 1006.15 1005.38 1004.40 1004.11 1003.83 1003.65 1002.99 1003.01 1002.66 1003.36 1003.51 1003.22 1003.05 1002.56 1002.88 1002.39 1002.53 1003.02 1003.66 1004.10 1004.32
1018.50 1017.90 1017.30 1016.69 1016.13 1015.69 1015.23 1014.85 1014.53 1014.21 1013.97 1013.73 1013.43 1013.15 1012.00 1009.62 1007.05 1008.49 1009.35 1009.54 1009.09 1007.93 1006.81 1006.11 1005.50 1004.88 1004.14 1003.71 1004.09 1003.77 1003.06 1003.67 1003.65 1003.89 1003.93 1003.70 1003.53 1003.34 1002.87 1002.81 1003.13 1003.86 1004.17 1004.51 1004.33
1018.38 1017.74 1017.14 1016.56 1015.97 1015.41 1014.97 1014.53 1014.23 1013.95 1013.68 1013.48 1013.19 1013.17 1011.57 1007.99 1006.76 1007.95 1008.29 1008.30 1007.66 1007.09 1006.72 1006.05 1005.37 1004.98 1004.52 1004.10 1004.05 1003.37 1003.43 1003.69 1003.66 1003.73 1003.79 1003.99 1003.49 1003.36 1003.18 1003.04 1003.66 1003.93 1003.97 1004.06 1004.32
1018.27 1017.61 1016.93 1016.25 1015.66 1015.12 1014.61 1014.21 1013.88 1013.65 1013.45 1013.18 1012.86 1012.31 1009.93 1007.07 1006.76 1007.31 1007.68 1007.44 1007.01 1007.05 1006.48 1006.49 1006.20 1005.88 1004.74 1004.33 1004.27 1004.29 1004.03 1003.80 1003.61 1003.63 1003.62 1004.01 1003.25 1002.65 1003.04 1003.13 1003.54 1003.53 1003.66 1003.72 1003.98
1018.16 1017.41 1016.67 1016.04 1015.31 1014.71 1014.20 1013.73 1013.38 1013.11 1012.96 1012.88 1012.83 1011.34 1008.40 1006.36 1006.73 1007.00 1007.03 1006.96 1007.22 1007.15 1007.00 1006.82 1006.62 1005.84 1005.30 1004.35 1004.73 1004.16 1003.74 1002.65 1002.31 1003.26 1003.65 1004.20 1002.08 1001.33 1002.51 1002.93 1003.13 1003.22 1003.19 1003.19 1003.41
1017.99 1017.18 1016.47 1015.73 1015.02 1014.29 1013.73 1013.21 1012.77 1012.56 1012.52 1012.48 1012.15 1010.31 1007.06 1007.40 1007.00 1006.67 1006.61 1006.55 1006.70 1007.04 1007.04 1007.25 1006.65 1005.58 1005.09 1004.61 1003.64 1003.09 1002.33 1001.91 1001.18 1002.65 1002.95 1003.55 1001.92 1001.16 1001.98 1002.47 1002.58 1002.70 1002.73 1002.73 1002.89
1018.05 1017.03 1016.12 1015.39 1014.70 1014.01 1013.33 1013.04 1012.61 1012.50 1012.17 1011.19 1009.93 1009.01 1006.65 1005.89 1006.17 1006.31 1006.38 1006.28 1006.50 1006.61 1006.73 1006.73 1005.89 1005.15 1004.43 1003.46 1001.95 1001.32 1001.45 1001.35 1001.19 1001.68 1002.74 1002.67 1002.05 1001.66 1001.53 1001.85 1001.85 1001.95 1001.92 1002.05 1002.24
1017.95 1017.00 1015.99 1015.00 1014.27 1013.78 1013.09 1012.07 1012.00 1010.91 1009.37 1007.61 1006.75 1006.13 1005.81 1005.91 1006.03 1006.22 1006.33 1006.49 1006.35 1006.26 1005.56 1005.21 1004.73 1003.62 1002.86 1002.71 1002.73 1002.63 1002.39 1001.71 1001.29 1001.56 1001.93 1002.27 1002.02 1001.50 1001.03 1000.86 1000.97 1001.07 1001.02 1001.36 1001.58
1017.89 1016.73 1015.69 1014.71 1013.84 1013.30 1012.87 1009.71 1009.33 1009.09 1007.69 1006.01 1005.57 1005.42 1005.46 1005.80 1005.63 1005.55 1005.89 1006.05 1005.93 1005.31 1004.71 1004.83 1003.72 1003.30 1003.20 1003.23 1003.57 1003.44 1002.84 1002.21 1001.90 1001.81 1002.15 1001.97 1001.38 1001.14 1000.63 1000.21 1000.19 1000.23 1000.29 1000.70 1001.09
1017.84 1016.69 1015.36 1014.19 1013.40 1012.55 1010.32 1009.32 1009.08 1008.87 1007.37 1004.66 1005.02 1004.90 1004.97 1005.43 1005.29 1004.75 1005.51 1005.44 1004.96 1004.75 1004.11 1003.75 1002.83 1003.53 1004.02 1003.60 1003.83 1003.27 1002.81 1002.33 1002.03 1001.77 1001.74 1001.72 1000.80 1000.28 999.51 999.35 999.50 999.67 1000.00 1000.25 1000.63
1017.67 1016.60 1015.42 1013.96 1013.39 1010.43 1009.25 1009.63 1009.11 1009.01 1006.87 1004.27 1004.52 1004.61 1005.00 1005.16 1005.10 1004.64 1004.65 1005.12 1004.68 1004.35 1003.82 1003.33 1002.99 1003.49 1003.69 1003.43 1003.37 1002.69 1002.47 1002.45 1002.45 1002.45 1001.32 1000.79 999.21 998.89 998.22 998.54 999.19 999.11 999.81 1000.14 1000.58
1017.72 1016.47 1015.29 1015.31 1012.87 1009.69 1010.03 1009.50 1009.23 1009.09 1005.63 1003.78 1004.03 1004.53 1004.56 1004.33 1004.06 1004.39 1004.82 1004.85 1004.35 1003.92 1004.37 1003.05 1002.85 1003.39 1003.32 1002.91 1002.94 1002.86 1002.91 1003.00 1002.91 1002.42 1001.74 1000.70 999.65 998.02 997.74 997.51 997.60 998.32 998.98 999.60 1000.06
1017.47 1016.27 1015.50 1013.17 1011.85 1010.31 1010.07 1009.71 1009.31 1007.94 1004.37 1003.33 1003.93 1004.18 1004.40 1004.37 1004.10 1004.45 1004.71 1004.92 1004.51 1004.35 1003.86 1003.32 1003.25 1003.09 1002.80 1002.89 1002.89 1003.15 1003.25 1003.15 1002.87 1002.15 1000.80 999.95 999.28 997.24 996.79 996.32 997.33 998.10 998.96 999.40 1000.03
1016.96 1015.79 1015.45 1013.22 1011.29 1010.59 1010.21 1009.23 1007.89 1005.83 1004.31 1003.80 1004.18 1004.55 1004.27 1004.08 1004.05 1004.11 1004.30 1004.49 1004.57 1004.06 1003.34 1002.67 1002.12 1002.00 1002.27 1002.47 1002.81 1002.81 1003.29 1002.39 1001.40 1000.30 998.76 998.24 997.59 996.61 996.71 997.33 997.73 997.97 998.87 999.57 1000.09
1016.64 1015.13 1013.43 1012.11 1011.27 1010.75 1010.01 1008.68 1007.10 1005.21 1004.71 1005.56 1005.71 1005.42 1004.89 1004.24 1004.28 1004.29 1004.19 1003.90 1003.84 1003.69 1003.10 1002.46 1001.69 1001.50 1001.23 1001.13 1001.55 1002.11 1002.00 1001.71 1000.83 1000.19 998.63 998.41 997.57 997.05 997.17 997.64 998.06 998.57 998.80 999.53 1000.17
1016.01 1012.91 1011.75 1011.88 1011.32 1011.04 1009.79 1007.70 1006.45 1006.97 1007.54 1007.07 1006.70 1005.73 1004.88 1004.53 1005.61 1004.83 1004.75 1004.35 1003.99 1003.84 1003.68 1003.08 1001.84 1001.97 1001.55 1001.27 1002.04 1002.05 1001.91 1002.00 1001.58 1001.21 1000.24 998.85 997.43 996.45 996.55 997.28 997.93 998.44 998.96 999.44 1000.02
1016.18 1012.86 1011.62 1011.92 1011.33 1010.83 1009.45 1007.71 1007.67 1009.15 1009.49 1008.62 1007.57 1006.73 1005.98 1005.21 1005.31 1005.72 1005.41 1004.77 1004.80 1005.05 1005.18 1004.92 1003.59 1003.39 1002.66 1002.23 1001.81 1002.46 1002.84 1002.59 1002.42 1002.23 1000.78 998.91 997.69 996.20 995.82 996.29 997.55 998.30 998.66 999.38 999.86
1016.04 1012.18 1011.57 1011.78 1011.00 1010.17 1008.80 1008.40 1009.06 1010.13 1010.88 1010.19 1008.91 1008.32 1007.96 1007.65 1007.34 1006.91 1006.56 1006.29 1006.59 1007.16 1007.24 1006.89 1006.10 1004.59 1003.92 1002.93 1001.94 1002.01 1002.21 1003.12 1003.43 1002.98 1001.51 1000.39 998.44 997.24 997.42 998.15 998.38 998.53 998.72 999.09 999.70
1015.30 1012.03 1011.67 1011.71 1010.91 1009.90 1009.39 1010.95 1012.19 1011.06 1011.45 1011.10 1010.73 1010.13 1009.81 1009.47 1009.05 1008.49 1007.91 1007.54 1008.02 1009.00 1008.75 1008.25 1007.65 1005.95 1004.79 1003.83 1003.20 1002.79 1002.65 1003.43 1004.25 1004.85 1003.43 1001.65 998.66 998.38 998.49 999.15 998.96 998.89 998.48 998.58 999.01
1017.00 1014.05 1012.67 1011.58 1010.87 1010.83 1011.65 1011.85 1012.33 1012.47 1012.15 1012.07 1011.79 1011.32 1011.68 1011.28 1010.83 1009.62 1009.20 1008.94 1009.36 1010.29 1010.63 1010.75 1009.20 1007.38 1005.38 1004.89 1004.29 1003.97 1004.52 1006.10 1006.51 1006.23 1004.73 1002.93 1000.18 1000.51 999.54 999.18 999.37 999.44 999.11 999.40 999.89
1017.71 1014.61 1013.00 1012.83 1013.63 1013.46 1013.00 1012.28 1012.56 1013.17 1013.15 1013.33 1012.94 1012.64 1012.27 1012.05 1011.69 1010.91 1010.61 1010.55 1010.83 1011.14 1012.09 1012.71 1011.25 1010.02 1007.62 1006.58 1006.64 1005.72 1005.61 1006.25 1007.77 1007.08 1005.86 1004.62 1002.92 1001.57 1000.38 1000.24 1000.85 1000.69 1000.47 1000.44 1000.46
1017.78 1016.09 1016.30 1013.73 1013.58 1014.44 1014.12 1013.69 1013.27 1013.21 1013.89 1013.95 1013.31 1013.05 1012.97 1013.09 1012.43 1012.11 1011.73 1011.61 1011.85 1011.96 1012.06 1012.25 1011.12 1010.56 1008.86 1008.40 1007.91 1006.91 1006.01 1005.60 1006.12 1006.01 1005.93 1005.25 1004.96 1003.83 1003.35 1002.27 1002.37 1001.05 1002.31 1002.37 1002.07
1018.71 1017.92 1016.53 1015.66 1015.43 1014.77 1014.65 1013.76 1014.29 1014.23 1014.82 1013.99 1014.14 1013.82 1013.97 1013.92 1013.75 1013.26 1013.07 1012.74 1012.28 1011.95 1011.86 1011.85 1011.10 1011.14 1009.53 1009.53 1008.43 1007.31 1006.50 1006.50 1005.91 1005.50 1004.99 1004.58 1003.53 1003.87 1003.40 1003.14 1004.10 1003.89 1004.82 1003.86 1002.88
1020.03 1019.26 1018.54 1015.97 1014.98 1014.95 1014.27 1014.90 1015.09 1015.48 1014.93 1014.84 1014.86 1014.75 1014.39 1014.26 1014.45 1014.44 1014.26 1013.67 1013.05 1012.66 1012.32 1012.34 1011.93 1011.62 1009.93 1010.29 1009.10 1007.12 1006.34 1005.75 1005.07 1004.57 1004.62 1004.00 1003.51 1003.30 1003.07 1003.03 1002.78 1002.72 1002.89 1001.73 1001.78
Wind_Speed
17 17 16 15 14 13 13 13 12 11 11 11 12 11 12 13 14 10 7 6 3 3 5 8 10 11 10 13 10 12 11 14 16 8 7 10 12 4 3 4 7 1 11 12 10
18 18 17 16 15 14 14 13 12 12 11 11 11 11 11 11 13 9 8 5 1 3 13 11 10 10 13 11 9 11 12 16 3 6 2 9 10 9 8 8 9 9 9 7 8
19 19 18 17 16 14 14 14 13 12 12 12 12 12 12 14 16 13 10 6 5 9 13 8 6 12 14 10 11 15 15 4 3 8 8 4 10 3 10 11 11 12 13 10 9
20 20 19 19 18 16 15 14 14 13 13 13 13 13 14 11 3 13 11 8 8 12 10 8 10 13 13 11 5 12 7 6 6 5 7 9 10 10 10 13 7 1 5 4 7
19 20 20 19 18 16 15 14 13 13 12 12 13 12 10 15 8 17 11 9 11 13 6 7 11 13 12 9 6 13 7 7 2 7 10 10 8 13 14 12 3 7 7 11 10
20 20 20 19 18 17 15 14 12 12 11 11 11 10 11 15 13 15 13 10 13 10 1 7 5 6 13 7 11 7 3 9 10 12 12 13 14 12 13 8 6 11 12 13 11
22 21 21 21 19 18 16 14 12 12 12 12 9 8 13 9 6 11 10 11 3 4 8 2 5 9 4 11 10 7 12 13 13 11 10 9 15 15 15 9 13 13 13 11 10
23 23 22 21 21 19 17 15 13 13 12 11 9 10 11 6 7 9 10 7 5 4 7 4 6 12 9 2 7 15 15 16 18 11 11 8 15 20 15 11 14 15 15 14 14
25 24 23 23 21 20 17 15 11 9 8 8 8 13 13 5 12 11 13 10 9 6 4 4 10 12 7 13 14 12 14 17 12 14 11 14 14 7 11 12 14 14 16 16 17
25 26 26 24 22 20 18 8 3 5 8 9 9 7 10 11 13 6 8 8 8 7 9 11 9 11 12 14 13 7 16 15 10 15 13 15 18 16 12 16 17 16 16 16 17
27 26 26 26 22 17 13 6 8 9 12 12 2 12 2 2 5 10 10 10 8 8 14 14 11 13 12 11 13 11 15 14 13 9 9 12 18 20 18 16 18 18 16 15 16
28 29 27 27 23 16 8 8 7 8 11 14 14 14 12 6 11 14 13 12 13 14 14 7 15 11 10 7 10 14 16 17 15 14 12 17 20 20 21 20 19 18 14 14 13
28 29 30 28 23 6 8 7 8 8 9 6 3 7 10 14 14 15 14 15 14 14 15 13 16 4 11 10 12 15 15 15 16 13 13 17 23 24 25 27 22 20 14 13 14
29 29 29 33 8 8 3 5 9 4 8 11 11 6 7 10 12 15 15 15 13 15 14 13 10 3 10 12 12 15 12 12 14 15 14 16 16 17 10 10 14 14 15 15 14
29 30 29 12 11 6 8 8 9 6 8 6 9 6 7 14 5 13 12 15 17 14 8 14 8 10 13 13 10 14 13 13 14 17 19 20 15 16 16 20 18 15 17 16 16
29 29 26 3 9 7 10 8 6 9 9 8 7 7 9 10 7 7 9 12 11 15 19 20 18 17 14 16 15 12 15 16 18 17 18 20 20 18 17 14 12 12 14 13 12
32 28 17 8 9 12 8 8 9 9 5 4 3 3 5 7 8 12 13 14 14 17 17 20 23 22 19 18 19 17 13 13 17 15 18 20 15 11 8 3 6 12 12 11 11
33 27 6 7 10 8 8 10 11 4 4 6 3 7 11 9 7 12 12 15 16 20 18 19 20 19 17 19 16 20 17 14 20 18 19 10 8 13 10 7 10 10 10 13 11
34 4 3 9 10 7 9 10 6 12 9 8 12 15 15 10 5 9 13 16 18 16 19 19 23 18 20 12 12 16 20 22 21 22 19 22 29 18 15 16 13 12 14 12 14
11 5 4 14 10 8 10 14 2 6 10 7 13 10 13 10 5 7 13 9 12 12 12 15 21 15 17 19 17 16 18 18 11 16 24 20 23 17 17 12 18 13 15 14 14
8 5 9 15 7 8 10 7 6 6 9 7 13 14 13 15 14 14 12 15 7 10 15 15 20 21 21 21 24 18 18 20 21 20 19 21 17 11 7 9 8 15 16 15 16
7 5 9 10 9 3 6 6 1 6 5 8 7 12 12 11 15 16 18 16 11 9 14 15 15 20 24 26 28 26 20 21 11 16 19 19 21 20 3 7 14 14 16 13 18
7 5 6 10 5 3 3 5 2 7 6 7 8 4 10 10 11 10 11 10 12 10 13 12 8 17 21 20 19 21 16 11 17 18 22 24 22 18 22 17 12 15 12 11 8
5 4 2 4 4 7 5 3 6 3 6 7 10 9 10 10 12 10 11 10 11 12 11 9 14 20 20 23 23 29 27 21 16 7 13 20 27 30 23 13 11 16 11 13 13
2 4 5 5 3 6 5 4 7 5 1 8 6 7 7 7 12 15 12 13 16 16 17 15 20 23 24 24 26 28 30 32 27 25 22 22 20 26 27 23 21 10 11 19 20
7 6 4 9 5 7 4 1 7 3 5 7 7 9 9 13 14 19 18 16 15 14 14 12 18 20 27 24 24 27 30 30 31 32 29 28 33 24 25 25 26 11 23 24 26
6 2 6 2 5 6 4 5 6 8 9 8 10 12 13 13 14 15 16 18 19 19 18 17 16 17 23 21 23 25 25 27 29 29 24 26 28 27 23 21 19 22 15 15 6
Wind_Direction
1 356 352 347 339 332 327 323 319 317 313 311 310 308 308 307 300 212 209 68 94 152 284 226 212 203 227 230 243 237 260 251 237 204 210 139 239 172 40 185 225 91 69 94 150
357 353 350 347 340 333 327 322 319 316 314 311 309 306 306 318 261 231 97 100 156 228 240 209 192 197 214 222 209 233 230 255 293 230 271 165 256 158 209 191 171 167 115 150 177
355 351 347 344 340 334 328 322 319 317 315 314 312 310 308 304 264 116 147 167 227 262 265 269 264 212 235 230 212 221 256 340 59 353 305 216 207 191 250 220 223 203 175 175 181
351 348 343 339 337 332 326 320 315 315 316 314 311 310 312 261 301 101 147 184 225 268 241 221 227 227 239 217 210 260 265 299 169 174 247 254 257 248 239 258 25 56 323 252 232
347 344 340 335 332 327 320 315 309 307 308 309 308 314 294 219 247 132 150 190 232 238 273 246 238 234 244 232 206 237 179 217 230 225 236 257 249 257 256 238 179 246 219 248 242
345 342 338 335 331 326 318 309 299 294 293 294 297 307 246 264 97 143 191 186 248 243 224 275 277 301 289 245 229 205 218 214 233 236 228 244 240 231 247 240 238 240 239 226 238
342 341 338 334 331 325 318 307 296 290 288 281 272 274 271 286 156 171 201 224 209 267 255 207 305 226 309 237 240 250 249 227 235 233 235 242 248 231 249 178 234 225 229 243 231
341 338 336 334 330 327 320 307 287 274 269 264 269 261 262 168 195 199 207 218 220 224 281 285 257 278 251 327 239 243 234 252 197 213 224 223 265 203 209 206 228 238 244 244 237
339 337 334 333 330 327 321 308 278 254 231 206 229 228 262 118 209 218 228 234 180 224 212 289 254 252 191 243 229 203 248 217 213 181 240 208 263 205 174 237 241 250 257 254 249
339 335 332 331 329 326 319 292 230 182 212 211 261 246 231 220 194 205 213 242 197 199 212 228 230 230 221 232 249 290 206 255 236 173 207 253 248 257 242 229 244 246 252 247 250
338 334 331 329 325 322 308 197 205 193 203 258 237 257 184 204 114 211 178 211 221 224 243 190 250 236 253 227 276 323 295 292 286 232 258 259 272 270 265 243 245 247 247 240 239
337 333 330 327 321 312 266 277 36 339 293 265 245 251 256 183 219 219 181 212 205 239 204 237 232 242 295 283 274 269 264 262 258 261 262 271 270 266 259 251 247 253 243 228 222
335 333 330 327 321 268 287 23 330 317 265 222 200 241 207 219 230 203 195 218 238 233 251 253 307 76 277 246 238 252 260 276 281 290 270 268 264 256 251 241 243 243 236 229 224
335 333 330 326 298 331 253 355 308 342 269 141 178 136 179 196 219 241 196 229 229 252 260 260 292 279 251 245 261 264 263 273 258 261 266 258 282 279 287 216 235 229 221 232 229
333 330 326 330 313 305 353 318 326 247 272 119 117 90 158 214 82 191 213 222 248 249 225 264 201 222 252 263 272 276 303 288 281 278 278 261 258 264 246 251 236 219 238 219 230
331 326 330 162 242 359 314 308 251 233 246 128 130 190 182 216 234 122 211 236 267 268 266 262 266 281 269 289 279 283 280 263 267 258 255 256 251 265 266 230 218 209 221 208 216
328 320 315 297 336 325 311 244 239 245 82 145 126 237 268 267 233 235 205 215 238 247 244 246 241 236 239 246 261 241 250 267 262 240 247 246 238 255 336 26 303 196 195 203 214
320 312 200 278 328 317 278 242 255 300 349 72 267 268 253 268 262 246 257 259 253 250 265 272 270 275 271 244 250 270 259 249 279 282 289 2 249 248 244 299 217 264 212 190 208
310 315 294 352 328 298 265 244 296 12 6 333 301 262 260 225 226 292 269 274 285 297 292 295 284 289 282 273 274 254 255 272 278 274 276 276 279 252 216 195 220 220 229 224 200
312 302 44 335 325 275 258 265 100 34 339 310 286 305 288 296 263 288 284 309 322 312 339 303 293 276 285 289 242 260 281 280 250 273 266 265 268 277 280 211 208 229 236 222 196
258 276 42 339 295 247 256 24 39 66 10 320 315 307 302 300 296 283 286 298 30 328 326 298 284 286 282 265 268 257 245 234 272 269 266 264 270 299 47 304 243 219 216 219 214
304 288 22 344 271 326 342 12 51 350 335 299 297 282 298 311 299 287 283 282 46 6 306 305 314 288 282 296 299 293 281 276 250 263 269 273 271 286 279 284 293 257 246 221 209
323 294 45 325 314 6 25 283 328 340 334 325 297 325 315 292 294 275 284 294 359 7 9 343 276 293 288 280 270 260 311 306 310 292 270 262 261 261 276 297 289 242 257 242 231
299 304 58 76 56 325 352 272 284 104 311 318 300 287 271 279 275 273 283 299 302 305 355 316 268 262 270 282 298 293 281 264 246 251 283 281 293 291 278 251 242 279 267 299 228
313 55 14 325 77 328 286 304 288 296 280 300 286 271 312 295 312 285 285 316 304 288 267 248 268 267 272 288 291 288 281 280 274 271 266 278 278 288 296 304 284 295 310 282 284
324 340 355 276 291 280 144 282 309 324 297 292 272 309 311 292 294 294 295 289 289 288 279 275 280 280 277 280 276 277 274 279 277 275 275 272 272 267 277 278 290 228 223 243 253
9 251 274 254 235 259 20 349 316 314 280 258 294 296 287 306 324 307 298 284 276 281 280 282 279 278 277 288 288 276 273 270 268 261 262 253 258 272 266 283 274 299 307 290 279